Flag for Germany Weather past 2 weeks in Cologne, North Rhine-Westphalia, Germany

Now
68 °F

Sunny.


Feels Like: 68 °F
Forecast: 60 / 80 °F
Wind: 6 mph from East

Location: Koeln / Bonn

Current Time: Jul 31, 2014 at 10:30:55 PM

Latest Report: Jul 31, 2014 at 9:50 PM


Visibility: 10 mi

Pressure: 29.92 "Hg

Humidity: 64%

Dew point: 55 °F

Location of CologneLocation

Historic Weather in Cologne — Graph

°F

Cologne temperature yesterday

Maximum temperature yesterday: 75 °F (at 3:20 PM)
Minimum temperature yesterday: 64 °F (at 4:50 AM)
Average temperature yesterday: 68 °F

Past Weeks' High & Low Weather Summary

 TemperatureHumidityPressure
High91 °F (Jul 19, 2:50 PM)100% (Jul 21, 7:20 AM)30.18 "Hg (Jul 21, 7:20 AM)
Low54 °F (Jul 25, 4:20 AM)26% (Jul 19, 2:50 PM)29.77 "Hg (Jul 20, 2:20 AM)
Average71 °F73%29.94 "Hg
* Reported Jul 16 9:20 PM — Jul 31 9:20 PM, Cologne, Weather by CustomWeather, © 2014

Note: Actual official high and low records may vary slightly from our data, if they occured in-between our weather recording intervals... More about our weather records

Advertising

Cologne weather history for previous 24 hours

 ConditionsComfort  
Time TempWeatherWind HumidityBarometerVisibility
9:20 PM
Jul 31
68 °FSunny.6 mph64%29.92 "Hg10 mi
8:50 PM72 °FSunny.5 mph57%29.92 "Hg10 mi
8:20 PM75 °FSunny.5 mph50%29.92 "Hg10 mi
7:50 PM77 °FSunny.5 mph44%29.92 "Hg10 mi
7:20 PM77 °FSunny.5 mph44%29.92 "Hg10 mi
6:50 PM77 °FSunny.2 mph47%29.92 "Hg10 mi
6:20 PM77 °FSunny.5 mph44%29.92 "Hg10 mi
5:50 PM77 °FSunny.5 mph44%29.95 "Hg10 mi
5:20 PM77 °FSunny.5 mph39%29.95 "Hg10 mi
4:50 PM79 °FPassing clouds.5 mph42%29.95 "HgN/A
4:20 PM77 °FPassing clouds.5 mph42%29.95 "HgN/A
3:50 PM77 °FSunny.3 mph44%29.95 "Hg10 mi
3:20 PM77 °FPassing clouds.3 mph44%29.98 "HgN/A
2:50 PM75 °FPassing clouds.3 mph47%29.98 "HgN/A
2:20 PM73 °FPassing clouds.3 mph53%29.98 "HgN/A
1:50 PM73 °FPassing clouds.5 mph50%29.98 "HgN/A
1:20 PM72 °FPassing clouds.5 mph53%30.01 "HgN/A
12:50 PM72 °FPassing clouds.3 mph57%30.01 "HgN/A
12:20 PM72 °FPassing clouds.5 mph65%30.01 "HgN/A
11:50 AM68 °FPassing clouds.2 mph64%30.01 "HgN/A
11:20 AM68 °FScattered clouds.5 mph64%30.01 "HgN/A
10:50 AM66 °FScattered clouds.3 mph73%30.04 "HgN/A
10:20 AM64 °FScattered clouds.3 mph78%30.04 "HgN/A
9:50 AM64 °FScattered clouds.2 mph78%30.04 "HgN/A
9:20 AM63 °FScattered clouds.3 mph83%30.04 "HgN/A
8:50 AM61 °FPassing clouds.2 mph88%30.01 "HgN/A
8:20 AM61 °FPassing clouds.3 mph88%30.01 "HgN/A
7:50 AM59 °FPassing clouds.2 mph94%30.01 "HgN/A
7:20 AM57 °FSunny.2 mph94%30.01 "Hg10 mi
6:50 AM55 °FFog.2 mph94%30.01 "HgN/A
6:20 AM57 °FFog.No wind94%30.01 "HgN/A
5:50 AM57 °FFog.2 mph94%30.01 "HgN/A
5:20 AM57 °FFog.1 mph94%30.01 "HgN/A
4:50 AM59 °FClear.3 mph88%30.01 "Hg10 mi
4:20 AM59 °FPassing clouds.2 mph88%30.01 "HgN/A
3:50 AM61 °FPassing clouds.7 mph88%30.01 "HgN/A
3:20 AM61 °FPassing clouds.5 mph88%30.01 "HgN/A
2:50 AM61 °FPassing clouds.3 mph88%29.98 "HgN/A
2:20 AM61 °FPassing clouds.3 mph88%29.98 "HgN/A
1:50 AM61 °FPassing clouds.6 mph88%29.98 "HgN/A
1:20 AM61 °FClear.5 mph88%29.98 "Hg10 mi
12:50 AM63 °FClear.2 mph83%29.98 "Hg10 mi
12:20 AM63 °FClear.3 mph83%29.98 "Hg10 mi
11:50 PM
Jul 30
64 °FClear.3 mph78%29.98 "Hg10 mi
11:20 PM64 °FClear.5 mph78%29.98 "Hg10 mi
10:50 PM66 °FPassing clouds.6 mph78%29.98 "HgN/A
10:20 PM68 °FPassing clouds.5 mph69%29.95 "HgN/A
Weather by CustomWeather, © 2014

See weather overviewHow to use our weather pages